Satellite: OKEAN-0
Catalog number: 25860
Epoch time:      05267.66508945
Element set:    0547
Inclination:      097.7524 deg
RA of node:       289.1644 deg
Eccentricity:    0.0000683
Arg of perigee:   120.3492 deg
Mean anomaly:     239.7778 deg
Mean motion:   14.73293417 rev/day
Decay rate:       1.62e-06 rev/day^2
Epoch rev:           33265
Checksum:              328

Satellite: NOAA-16
Catalog number: 26536
Epoch time:      05267.54726577
Element set:    0531
Inclination:      099.0259 deg
RA of node:       226.6162 deg
Eccentricity:    0.0010865
Arg of perigee:   144.1509 deg
Mean anomaly:     216.0393 deg
Mean motion:   14.12274083 rev/day
Decay rate:      -1.32e-06 rev/day^2
Epoch rev:           25808
Checksum:              300

Satellite: NOAA-17
Catalog number: 27453
Epoch time:      05267.73487070
Element set:    0548
Inclination:      098.6531 deg
RA of node:       339.7063 deg
Eccentricity:    0.0012729
Arg of perigee:   125.1819 deg
Mean anomaly:     235.0547 deg
Mean motion:   14.23705807 rev/day
Decay rate:       2.22e-06 rev/day^2
Epoch rev:           16900
Checksum:              308

Satellite: NOAA-18
Catalog number: 28654
Epoch time:      05268.33989594
Element set:     166
Inclination:      098.7525 deg
RA of node:       212.7455 deg
Eccentricity:    0.0013503
Arg of perigee:   251.4796 deg
Mean anomaly:     108.4931 deg
Mean motion:   14.10884863 rev/day
Decay rate:       2.68e-06 rev/day^2
Epoch rev:            1803
Checksum:              333

/EX
SB KEPS @ AMSAT  $ORB05268.M
Orbital Elements  05268.MISC

HR AMSAT ORBITAL ELEMENTS FOR MANNED AND MISCELLANEOUS SATELLITES
FROM WA5QGD FORT WORTH,TX September 25, 2005
Send SUBSCRIBE KEPS/UNSUBSCRIBE KEPS to majordomo@amsat.org only
BID: ORB05268.M
TO ALL RADIO AMATEURS BT

Satellite: HUBBLE
Catalog number: 20580
Epoch time:      05268.60777920
Element set:     434
Inclination:      028.4695 deg
RA of node:       334.4026 deg
Eccentricity:    0.0003707
Arg of perigee:   253.3355 deg
Mean anomaly:     106.6829 deg
Mean motion:   14.99848145 rev/day
Decay rate:       8.57e-06 rev/day^2
Epoch rev:           64533
Checksum:              319

Satellite: UARS
Catalog number: 21701
Epoch time:      05267.83871965
Element set:    0553
Inclination:      056.9794 deg
RA of node:       146.0700 deg
Eccentricity:    0.0010410
Arg of perigee:   088.6357 deg
Mean anomaly:     271.5792 deg
Mean motion:   15.04739171 rev/day
Decay rate:      -8.27e-06 rev/day^2
Epoch rev:           76848
Checksum:              323

Satellite: PO-34
Catalog number: 25520
Epoch time:      05267.75604356
Element set:    0301
Inclination:      028.4583 deg
RA of node:       006.5281 deg
Eccentricity:    0.0005349
Arg of perigee:   224.9449 deg
Mean anomaly:     135.0711 deg
Mean motion:   15.16447817 rev/day
Decay rate:      1.023e-05 rev/day^2
Epoch rev:           38171
Checksum:              285

Satellite: ISS
Catalog number: 25544
Epoch time:      05269.12326389
Element set:     432
Inclination:      051.6440 deg
RA of node:       103.9933 deg
Eccentricity:    0.0001907
Arg of perigee:   079.6672 deg
Mean anomaly:     056.3985 deg
Mean motion:   15.73403260 rev/day
Decay rate:     1.9607e-04 rev/day^2
Epoch rev:           39156
Checksum:              308

Satellite: OO-38
Catalog number: 26063
Epoch time:      05267.71268957
Element set:    0448
Inclination:      100.1993 deg
RA of node:       145.8947 deg
Eccentricity:    0.0037210
Arg of perigee:   134.7766 deg
Mean anomaly:     225.6456 deg
Mean motion:   14.35734631 rev/day
Decay rate:        8.0e-08 rev/day^2
Epoch rev:           29658
Checksum:              334

Satellite: NO-45
Catalog number: 26932
Epoch time:      05268.68851944
Element set:     134
Inclination:      067.0590 deg
RA of node:       328.6191 deg
Eccentricity:    0.0003823
Arg of perigee:   254.5664 deg
Mean anomaly:     105.5062 deg
Mean motion:   14.29499952 rev/day
Decay rate:       -1.2e-07 rev/day^2
Epoch rev:           20816
Checksum:              315

/EX



----
Via the keps mailing list at AMSAT.ORG courtesy of AMSAT-NA.
To unsubscribe, send "unsubscribe keps" to Majordomo@amsat.org

--- ViaMAIL!/WC v1.60d
 * Origin: Chowdanet (401-724-4410) telnet://chowdanet.com  (1:323/120)